Date String (YYYY-MM-DD hh:mm:ss) UTC,Instrument flags,Ambient pressure (hPa),Sample flow (lpm),Bypass flow (lpm),Sample temperature (°C),Ambient temperature (°C),ASC tube jacket temperature (°C),LED temperature (°C),Box temperature (°C),Sample RH (%),Span deviation,Mass concentration (μg/m³),Mass concentration (μg/m³),Mass concentration (μg/m³)
DateTimeUTC,F1_M11,P_M11,Q1_M11,Q2_M11,T1_M11,T2_M11,T3_M11,T4_M11,T5_M11,U1_M11,ZSPAN_M11,X2_M11,X0_M11,X1_M11
2023-03-11 01:00:00,,0812.8,5.00,0.00,23.8,22.2,00.0,32.5,25.5,17.6,0000.0,0002.25,0004.88,0001.89
2023-03-11 01:01:00,,0812.8,5.01,0.00,23.8,22.2,00.0,32.5,25.6,17.6,0000.0,0001.91,0003.53,0001.61
2023-03-11 01:02:00,,0812.8,4.99,0.00,23.8,22.3,00.0,32.5,25.6,17.6,0000.0,0001.17,0003.01,0000.97
2023-03-11 01:03:00,,0812.8,5.00,0.00,23.8,22.3,00.0,32.5,25.6,17.6,0000.0,0000.64,0002.77,0000.53
2023-03-11 01:04:00,,0812.8,4.99,0.00,23.8,22.3,00.0,32.5,25.6,17.6,0000.0,0000.46,0002.49,0000.36
2023-03-11 01:05:00,,0812.7,5.00,0.00,23.8,22.3,00.0,32.5,25.6,17.7,0000.0,0000.79,0003.20,0000.61
2023-03-11 01:06:00,,0812.7,4.99,0.00,23.8,22.3,00.0,32.5,25.6,17.8,0000.0,0001.69,0005.79,0001.30
2023-03-11 01:07:00,,0812.7,5.00,0.00,23.8,22.3,00.0,32.5,25.6,17.8,0000.0,0002.37,0006.94,0001.82
2023-03-11 01:08:00,,0812.8,4.99,0.00,23.8,22.2,00.0,32.5,25.6,18.0,0000.3,0003.43,0009.73,0002.89
2023-03-11 01:09:00,,0812.8,5.00,0.00,23.8,22.2,00.0,32.6,25.6,18.0,0001.9,0004.19,0012.18,0003.66
2023-03-11 01:10:00,,0812.9,5.01,0.00,23.8,22.2,00.0,32.5,25.6,18.0,0001.9,0004.98,0013.32,0004.36
2023-03-11 01:11:00,,0812.9,5.00,0.00,23.8,22.3,00.0,32.5,25.6,18.0,0001.0,0005.75,0014.12,0005.00
2023-03-11 01:12:00,,0812.7,5.00,0.00,23.8,22.3,00.0,32.5,25.6,18.0,0001.2,0006.52,0015.36,0005.66
2023-03-11 01:13:00,,0812.5,4.99,0.00,23.8,22.3,00.0,32.5,25.6,18.0,0001.3,0007.25,0017.15,0006.27
2023-03-11 01:14:00,,0812.6,4.99,0.00,23.8,22.3,00.0,32.5,25.6,18.0,0001.1,0007.86,0018.51,0006.79
2023-03-11 01:15:00,,0812.7,5.00,0.00,23.8,22.3,00.0,32.5,25.6,17.8,0001.1,0008.26,0019.23,0007.14
2023-03-11 01:16:00,,0812.7,5.00,0.00,23.8,22.3,00.0,32.5,25.6,17.8,0001.3,0008.58,0019.82,0007.42
2023-03-11 01:17:00,,0812.8,4.99,0.00,23.8,22.3,00.0,32.5,25.6,17.7,0001.5,0008.45,0019.38,0007.35
2023-03-11 01:18:00,,0812.9,5.00,0.00,23.8,22.3,00.0,32.5,25.6,17.8,0002.0,0008.51,0019.46,0007.42
2023-03-11 01:19:00,,0812.9,5.00,0.00,23.8,22.3,00.0,32.5,25.6,17.8,0001.8,0008.31,0019.04,0007.27
2023-03-11 01:20:00,,0812.9,5.00,0.00,23.8,22.3,00.0,32.6,25.6,17.8,0001.1,0007.96,0017.98,0006.98
2023-03-11 01:21:00,,0812.8,5.00,0.00,23.8,22.4,00.0,32.6,25.6,17.8,0000.8,0007.68,0017.87,0006.68
2023-03-11 01:22:00,,0812.7,5.01,0.00,23.8,22.4,00.0,32.6,25.6,17.6,0001.8,0007.15,0017.10,0006.25
2023-03-11 01:23:00,,0812.7,5.01,0.00,23.8,22.4,00.0,32.6,25.6,17.5,0001.9,0006.58,0016.40,0005.75
2023-03-11 01:24:00,,0812.7,5.00,0.00,23.8,22.4,00.0,32.6,25.6,17.6,0001.5,0006.09,0015.19,0005.36
2023-03-11 01:25:00,,0812.7,5.01,0.00,23.8,22.4,00.0,32.6,25.6,17.5,0002.1,0005.54,0013.56,0004.90
2023-03-11 01:26:00,,0812.7,4.99,0.00,23.8,22.4,00.0,32.6,25.6,17.5,0002.4,0005.24,0013.30,0004.67
2023-03-11 01:27:00,,0812.7,5.00,0.00,23.8,22.4,00.0,32.6,25.6,17.5,0001.6,0004.95,0013.07,0004.42
2023-03-11 01:28:00,,0812.7,5.00,0.00,23.8,22.5,00.0,32.6,25.7,17.5,0001.9,0004.75,0013.21,0004.26
2023-03-11 01:29:00,,0812.7,5.00,0.00,23.8,22.5,00.0,32.6,25.7,17.5,0002.2,0004.55,0012.94,0004.09
2023-03-11 01:30:00,,0812.7,5.00,0.00,23.9,22.5,00.0,32.6,25.7,17.5,0002.8,0004.30,0012.00,0003.88
2023-03-11 01:31:00,,0812.7,5.00,0.00,23.9,22.5,00.0,32.6,25.7,17.4,0003.5,0004.03,0010.30,0003.65
2023-03-11 01:32:00,,0812.7,5.00,0.00,23.9,22.5,00.0,32.6,25.7,17.4,0004.1,0003.69,0009.23,0003.39
2023-03-11 01:33:00,,0812.7,5.00,0.00,23.9,22.6,00.0,32.6,25.7,17.6,0004.5,0003.67,0009.27,0003.35
2023-03-11 01:34:00,,0812.7,5.00,0.00,23.9,22.5,00.0,32.6,25.7,17.7,0004.4,0003.92,0010.06,0003.56
2023-03-11 01:35:00,,0812.7,5.00,0.00,23.9,22.5,00.0,32.6,25.7,17.8,0003.9,0004.19,0011.31,0003.74
2023-03-11 01:36:00,,0812.7,5.00,0.00,23.9,22.4,00.0,32.6,25.7,17.9,0003.7,0004.55,0011.81,0004.00
2023-03-11 01:37:00,,0812.5,4.99,0.00,23.9,22.3,00.0,32.6,25.7,18.2,0003.2,0005.14,0012.47,0004.49
2023-03-11 01:38:00,,0812.5,5.00,0.00,23.9,22.2,00.0,32.6,25.6,18.4,0002.2,0005.85,0014.13,0005.06
2023-03-11 01:39:00,,0812.5,5.00,0.00,23.9,22.2,00.0,32.6,25.6,18.5,0001.3,0006.59,0014.97,0005.67
2023-03-11 01:40:00,,0812.5,5.00,0.00,23.8,22.2,00.0,32.6,25.6,18.6,0000.9,0007.32,0016.55,0006.30
2023-03-11 01:41:00,,0812.5,5.01,0.00,23.8,22.1,00.0,32.6,25.5,18.7,0000.7,0008.03,0017.69,0006.85
2023-03-11 01:42:00,,0812.5,5.00,0.00,23.8,22.1,00.0,32.6,25.5,18.7,0000.5,0008.80,0018.87,0007.49
2023-03-11 01:43:00,,0812.5,5.00,0.00,23.8,22.2,00.0,32.6,25.6,18.7,0000.4,0009.50,0020.52,0008.12
2023-03-11 01:44:00,,0812.5,4.99,0.00,23.8,22.2,00.0,32.6,25.5,18.8,0000.6,0010.16,0022.42,0008.69
2023-03-11 01:45:00,,0812.4,4.99,0.00,23.8,22.2,00.0,32.6,25.6,18.8,0000.8,0010.76,0023.40,0009.15
2023-03-11 01:46:00,,0812.5,4.99,0.00,23.8,22.2,00.0,32.6,25.5,18.8,0000.7,0011.16,0023.02,0009.53
2023-03-11 01:47:00,,0812.5,4.99,0.00,23.8,22.2,00.0,32.6,25.6,18.7,0000.9,0011.40,0022.81,0009.80
2023-03-11 01:48:00,,0812.4,5.01,0.00,23.8,22.2,00.0,32.6,25.5,18.6,0000.8,0011.31,0022.99,0009.72
2023-03-11 01:49:00,,0812.4,5.01,0.00,23.8,22.2,00.0,32.6,25.5,18.5,0000.8,0010.97,0023.06,0009.43
2023-03-11 01:50:00,,0812.4,5.00,0.00,23.8,22.1,00.0,32.6,25.5,18.6,0000.5,0010.66,0022.40,0009.16
2023-03-11 01:51:00,,0812.4,5.00,0.00,23.7,22.1,00.0,32.5,25.5,18.7,-000.3,0010.44,0022.02,0008.98
2023-03-11 01:52:00,,0812.4,5.00,0.00,23.7,22.1,00.0,32.5,25.5,18.7,-000.2,0010.32,0022.07,0008.87
2023-03-11 01:53:00,,0812.4,5.03,0.00,23.7,22.1,00.0,32.5,25.5,18.7,-000.2,0010.12,0022.30,0008.71
2023-03-11 01:54:00,,0812.4,5.02,0.00,23.7,22.2,00.0,32.5,25.5,18.5,-000.4,0009.83,0021.33,0008.42
2023-03-11 01:55:00,,0812.4,5.00,0.00,23.7,22.2,00.0,32.5,25.5,18.5,-000.8,0009.47,0019.85,0008.11
2023-03-11 01:56:00,,0812.4,4.99,0.00,23.7,22.2,00.0,32.5,25.5,18.6,-001.0,0009.10,0019.45,0007.82
2023-03-11 01:57:00,,0812.5,4.99,0.00,23.7,22.2,00.0,32.5,25.5,18.5,-000.7,0008.82,0020.23,0007.56
2023-03-11 01:58:00,,0812.5,5.00,0.00,23.7,22.3,00.0,32.5,25.5,18.3,-001.2,0008.50,0019.86,0007.25
2023-03-11 01:59:00,,0812.5,5.00,0.00,23.7,22.2,00.0,32.5,25.5,18.1,-001.1,0008.19,0019.26,0006.96
